Location: Newark
(35.6799°N, 139.7636°E)
Time: 07:39:12
(UTC+00:00)

Courier 1B - Pass Details

Date: 15 December 2019
Orbit: 962 x 1209 km, 28.3° (Epoch: 27 January)

Event Time Altitude Azimuth Distance (km) Brightness Sun altitude
Rises 08:26:15 0° 216° (SW) 3,693 11.6 -11.5°
Reaches altitude 10° 08:29:34 10° 200° (SSW) 2,781 10.5 -12.1°
Maximum altitude 08:34:23 21° 154° (SSE) 2,155 9.3 -13.0°
Drops below altitude 10° 08:39:25 10° 109° (ESE) 2,912 9.5 -14.0°
Enters shadow 08:39:25 10° 109° (ESE) 2,914 9.5 -14.0°
